[[{"header":{"parameterUnit":"m.s-1","parameterCategory":1,"la1":30.2991,"la2":30.254,"lo1":-89.0895,"lo2":-89.0444,"dy":0.0017,"dx":0.0017,"nx":28,"ny":28,"refTime":"2023-08-13T21:00:00:Z","depth":0,"parameterNumber":2,"parameterNumberName":"U-component_of_WINDS"},"data":[0,0,0,0,0,0,0,0,0,0,0,0,0,0,0,0,0,0,0,0,0,0,0,0,0,0,0,0,0,0,0,0,0,0,0,0,0,0,0,0,0,0,0,0,0,0,0,0,0,0,0,0,0,0,0,0,0,0,1.8192,1.8193,0,1.8277,1.8278,1.8279,1.8277,1.8276,1.8275,1.8274,1.836,1.8363,1.8366,0,0,0,0,0,0,0,0,0,0,0,0,0,1.8023,1.8026,1.8192,1.8193,1.8194,1.8277,1.8278,1.8279,1.8278,1.8276,1.8275,1.8273,1.8359,1.8362,1.8367,0,0,0,0,0,0,0,0,0,0,0,0,0,1.8101,1.8028,1.8191,1.8203,1.8205,1.8277,1.8278,1.828,1.8278,1.8276,1.8274,1.8273,1.8357,1.8362,1.8367,1.8433,0,0,1.8382,1.8385,0,0,0,0,0,0,0,0,1.8097,1.8108,1.82,1.8202,1.8205,1.8265,1.825,1.8331,1.8278,1.825,1.8274,1.8272,1.8329,1.8337,1.8356,1.8437,1.844,1.8383,1.8386,1.8388,1.839,0,0,0,0,0,0,0,1.8092,1.8104,1.8225,1.8201,1.8204,1.8203,1.8212,1.8266,1.8298,1.8252,1.8252,1.8263,1.833,1.8352,1.8358,1.8442,1.8383,1.8387,1.839,1.8392,1.8578,1.858,0,0,0,0,0,0,1.8084,1.8099,1.8223,1.8228,1.8145,1.8207,1.8217,1.8247,1.8298,1.8304,1.8264,1.8262,1.8344,1.8352,1.8361,1.844,1.8388,1.8393,1.8396,1.8576,1.8578,1.858,0,0,0,0,0,0,1.8081,1.8095,1.8219,1.8164,1.8179,1.8212,1.8245,1.825,1.8271,1.8307,1.8312,1.828,1.8343,1.8354,1.8415,1.8443,1.8395,1.84,1.8574,1.8577,1.8579,1.8598,0,0,0,0,0,0,1.8076,1.8094,1.812,1.8164,1.8182,1.8272,1.8247,1.8253,1.828,1.8279,1.8323,1.8329,1.8342,1.8407,1.842,1.8449,1.8404,1.8571,1.8575,1.8578,1.8595,1.8601,1.8607,0,0,0,0,0,1.807,1.8122,1.8121,1.8136,1.8216,1.8274,1.8284,1.8299,1.8282,1.8308,1.8331,1.8327,1.8438,1.8413,1.8427,1.8459,1.8569,1.8574,1.8578,1.8593,1.86,1.8607,0,0,0,0,0,0,1.8079,1.8128,1.8128,1.8196,1.8231,1.8273,1.8306,1.8307,1.8346,1.8343,1.836,1.837,1.8429,1.845,1.8422,1.8524,1.8501,1.8509,1.8508,1.8515,1.8521,1.8514,1.8408,0,0,0,0,0,1.809,1.8134,1.8173,1.823,1.8247,1.8274,1.8299,1.8308,1.8344,1.8359,1.8386,1.842,1.8463,1.849,1.8532,1.8599,1.8607,1.8627,1.8633,1.8637,1.8643,1.8678,1.8686,1.8594,1.8594,1.8594,0,0,1.8111,1.8143,1.8169,1.8232,1.826,1.8304,1.8286,1.8333,1.8366,1.8366,1.8424,1.8445,1.8485,1.8548,1.8577,1.8567,1.867,1.8643,1.8646,1.8649,1.8683,1.8692,1.8699,1.8597,1.8597,1.8596,0,0,1.8172,1.8201,1.825,1.8279,1.8321,1.8338,1.835,1.8393,1.8406,1.8465,1.8466,1.8504,1.8577,1.8605,1.8629,1.8699,1.8696,1.8712,1.8741,1.8775,1.8782,1.8789,1.8812,1.882,1.8718,1.8718,1.8718,0,1.8192,1.8259,1.8276,1.8323,1.835,1.8352,1.8401,1.8428,1.8481,1.8499,1.8487,1.8578,1.8605,1.8674,1.8691,1.8711,1.8723,1.8706,1.878,1.8787,1.8793,1.8815,1.8824,1.8719,1.8719,1.8719,1.8719,0,1.8282,1.8328,1.8363,1.8414,1.8445,1.8493,1.8515,1.8544,1.855,1.8568,1.8627,1.866,1.8706,1.8724,1.873,1.8793,1.8785,1.8777,1.8755,1.8803,1.8824,1.8833,1.8721,1.8721,1.872,1.872,0,0,1.8351,1.841,1.8423,1.8445,1.8492,1.8528,1.8575,1.8621,1.8645,1.8682,1.8721,1.8782,1.8774,1.8801,1.881,1.884,1.8891,1.8828,1.8829,1.8837,1.8961,1.8966,1.8976,1.8891,1.8892,1.8894,1.8957,0,1.8415,1.85,1.8515,1.8589,1.8631,1.8634,1.8675,1.8707,1.8725,1.8762,1.8782,1.8824,1.8811,1.8827,1.8857,1.8879,1.8916,1.8875,1.8925,1.8927,1.8914,1.8987,1.8993,1.9051,1.8965,1.8967,1.8968,0,1.8501,1.854,1.8618,1.8658,1.8676,1.8713,1.8755,1.8792,1.8828,1.8838,1.8868,1.8874,1.8921,1.8898,1.8963,1.8934,1.8956,1.897,1.8972,1.8976,1.8949,1.8991,1.907,1.9078,1.8981,1.898,1.8979,0,1.8541,1.8613,1.8669,1.8688,1.8737,1.8762,1.8783,1.8818,1.8844,1.8881,1.8898,1.8941,1.8963,1.8995,1.9011,1.8993,1.9075,1.9053,1.9084,1.9083,1.91,1.9098,1.9181,1.9117,1.9116,1.9116,1.9116,0,1.861,1.8657,1.8687,1.8721,1.8773,1.879,1.8841,1.8861,1.8892,1.8929,1.8934,1.8968,1.8989,1.9025,1.9039,1.9089,1.91,1.9109,1.9112,1.9108,1.9106,1.9121,1.9117,1.9119,1.9118,1.9118,1.9117,0,1.8663,1.8686,1.8746,1.8787,1.8798,1.8834,1.8869,1.8901,1.8919,1.8965,1.8977,1.9005,1.9048,1.9068,1.9122,1.913,1.9188,1.9189,1.9176,1.9176,1.9205,1.9201,1.9299,1.9312,1.924,1.9241,1.9242,0,1.8705,1.8742,1.8786,1.8812,1.8833,1.8874,1.8901,1.8919,1.8946,1.899,1.9016,1.906,1.9096,1.9165,1.919,1.923,1.9231,1.9262,1.9237,1.9231,1.9229,1.9226,1.9229,1.9266,1.9267,1.9268,1.9268,0,1.8777,1.8786,1.8825,1.8867,1.8899,1.8933,1.8967,1.8987,1.901,1.904,1.9085,1.9113,1.9167,1.921,1.9252,1.9273,1.9274,1.9276,1.9285,1.9281,1.9271,1.9275,1.9186,1.9273,1.9273,1.9273,1.9272,1.9272,1.8824,1.8856,1.8892,1.8935,1.8962,1.8993,1.9025,1.9046,1.9084,1.913,1.9139,1.9186,1.922,1.9276,1.9298,1.9335,1.9327,1.934,1.9343,1.9346,1.9347,1.9266,1.9343,1.9343,1.9342,1.9342,1.9342,0,1.8894,1.8917,1.8957,1.9003,1.9037,1.9036,1.9072,1.91,1.9141,1.9173,1.9208,1.9259,1.93,1.9328,1.9369,1.9393,1.9394,1.9403,1.9401,1.9405,1.9352,1.934,1.9401,1.9401,1.9401,1.9401,1.9401,1.9401,1.8934,1.8987,1.9,1.9066,1.9089,1.9136,1.9156,1.9184,1.921,1.9266,1.93,1.9318,1.9348,1.9392,1.9429,1.9436,1.945,1.9459,1.9465,1.9415,1.9409,1.9403,1.9391,1.9462,1.9462,1.9515,1.9515,1.9515]},{"header":{"parameterUnit":"m.s-1","parameterCategory":1,"la1":30.2991,"la2":30.254,"lo1":-89.0895,"lo2":-89.0444,"dy":0.0017,"dx":0.0017,"nx":28,"ny":28,"refTime":"2023-08-13T21:00:00:Z","depth":0,"parameterNumber":3,"parameterNumberName":"V-component_of_WINDS"},"data":[0,0,0,0,0,0,0,0,0,0,0,0,0,0,0,0,0,0,0,0,0,0,0,0,0,0,0,0,0,0,0,0,0,0,0,0,0,0,0,0,0,0,0,0,0,0,0,0,0,0,0,0,0,0,0,0,0,0,5.1533,5.1533,0,5.1508,5.1508,5.1507,5.1408,5.1406,5.1404,5.1402,5.1378,5.1379,5.1381,0,0,0,0,0,0,0,0,0,0,0,0,0,5.1497,5.1498,5.1533,5.1533,5.1532,5.1508,5.1508,5.1507,5.1409,5.1406,5.1403,5.1401,5.1378,5.1379,5.1381,0,0,0,0,0,0,0,0,0,0,0,0,0,5.1497,5.1499,5.1533,5.148,5.1475,5.1508,5.1508,5.1507,5.1409,5.1406,5.1402,5.1399,5.1377,5.1379,5.1381,5.1464,0,0,5.1388,5.1389,0,0,0,0,0,0,0,0,5.1497,5.1498,5.1488,5.1484,5.1478,5.1458,5.1486,5.1493,5.141,5.1434,5.1402,5.1398,5.1407,5.1407,5.141,5.1463,5.1462,5.1388,5.139,5.1391,5.1391,0,0,0,0,0,0,0,5.1497,5.1499,5.1523,5.1488,5.1482,5.1458,5.1454,5.1487,5.1441,5.1432,5.1425,5.1423,5.1404,5.1408,5.1409,5.1461,5.1388,5.139,5.1392,5.1393,5.158,5.1583,0,0,0,0,0,0,5.1504,5.1499,5.1524,5.1522,5.1479,5.1462,5.1457,5.1468,5.144,5.1432,5.1426,5.1419,5.1406,5.1406,5.1407,5.1501,5.1391,5.1393,5.1394,5.1576,5.158,5.1584,0,0,0,0,0,0,5.1504,5.1507,5.1525,5.1509,5.1509,5.1466,5.1479,5.1469,5.1473,5.1435,5.1427,5.1438,5.1403,5.1404,5.145,5.1499,5.1394,5.1396,5.1572,5.1577,5.1582,5.169,0,0,0,0,0,0,5.1503,5.1508,5.1538,5.151,5.151,5.1568,5.1481,5.1471,5.1477,5.1467,5.1445,5.1438,5.14,5.1447,5.1452,5.15,5.1398,5.1567,5.1574,5.1581,5.1682,5.1698,5.1712,0,0,0,0,0,5.1502,5.157,5.154,5.1544,5.1548,5.1571,5.1571,5.1526,5.1481,5.1511,5.1487,5.1438,5.1493,5.1453,5.1458,5.1507,5.1564,5.1572,5.158,5.1675,5.1695,5.1712,0,0,0,0,0,0,5.1606,5.1566,5.1532,5.1593,5.1586,5.1554,5.1591,5.1549,5.1556,5.1546,5.1491,5.1487,5.1541,5.1528,5.1484,5.1585,5.152,5.153,5.159,5.1609,5.1624,5.1626,5.14,0,0,0,0,0,5.1636,5.1658,5.1621,5.1679,5.1677,5.1635,5.1643,5.1609,5.16,5.1597,5.1576,5.157,5.1585,5.1597,5.1609,5.168,5.1673,5.1716,5.1731,5.1744,5.1753,5.1788,5.1807,5.1611,5.1611,5.1611,0,0,5.1698,5.1679,5.1696,5.1699,5.169,5.1714,5.1633,5.1662,5.1679,5.1602,5.1643,5.1628,5.1617,5.1676,5.17,5.1667,5.1806,5.1755,5.1765,5.1767,5.1799,5.1817,5.1834,5.1617,5.1616,5.1615,0,0,5.1823,5.1811,5.1857,5.1849,5.1835,5.1807,5.1818,5.1793,5.1779,5.182,5.1762,5.1782,5.181,5.1805,5.1806,5.1929,5.1883,5.1934,5.2014,5.205,5.2065,5.2078,5.2121,5.2138,5.1943,5.1943,5.1944,0,5.1902,5.1935,5.1886,5.1918,5.1921,5.1851,5.1897,5.1892,5.1884,5.1888,5.1851,5.1884,5.1872,5.1927,5.1957,5.1961,5.1972,5.1936,5.2067,5.208,5.2091,5.2132,5.2148,5.195,5.1949,5.1948,5.1948,0,5.2033,5.2057,5.2095,5.2088,5.2095,5.2135,5.2091,5.2105,5.2071,5.2046,5.2089,5.2072,5.2079,5.209,5.2057,5.2141,5.2121,5.2076,5.201,5.2117,5.2154,5.2169,5.1958,5.1956,5.1954,5.1953,0,0,5.2222,5.2186,5.2201,5.2196,5.2176,5.2194,5.2231,5.2237,5.2249,5.2246,5.2275,5.23,5.2258,5.226,5.2226,5.2257,5.2355,5.2208,5.2207,5.2235,5.2445,5.2478,5.2497,5.2325,5.2328,5.233,5.2446,0,5.234,5.2398,5.2355,5.2421,5.2442,5.2376,5.2408,5.2399,5.2378,5.2393,5.237,5.2388,5.2332,5.2332,5.236,5.2337,5.2396,5.2328,5.2351,5.2353,5.2355,5.2516,5.2551,5.2661,5.246,5.2462,5.2464,0,5.2486,5.2488,5.2556,5.253,5.2538,5.2567,5.2568,5.2584,5.2573,5.2555,5.2557,5.2514,5.2548,5.2484,5.253,5.2485,5.2492,5.2482,5.2486,5.2485,5.2414,5.2519,5.2695,5.2712,5.2487,5.2485,5.2483,0,5.2616,5.2636,5.2678,5.2677,5.2649,5.267,5.266,5.2645,5.2652,5.2654,5.2657,5.2664,5.2668,5.2674,5.2635,5.2592,5.2686,5.2619,5.2672,5.2673,5.2694,5.2693,5.2873,5.2701,5.2701,5.27,5.27,0,5.2751,5.2795,5.2736,5.2763,5.281,5.276,5.2809,5.2791,5.2779,5.2801,5.2746,5.2768,5.2715,5.2732,5.2702,5.2744,5.2747,5.2733,5.2725,5.2738,5.2739,5.2741,5.2732,5.2705,5.2704,5.2703,5.2702,0,5.2904,5.2866,5.2908,5.2878,5.2872,5.2908,5.2882,5.2905,5.288,5.2909,5.2913,5.2874,5.2891,5.2853,5.2865,5.2844,5.2905,5.2884,5.2908,5.2901,5.2956,5.2952,5.3142,5.3165,5.298,5.2982,5.2983,0,5.2993,5.3025,5.2997,5.3008,5.3,5.3018,5.3023,5.2976,5.2984,5.2974,5.2999,5.3011,5.3018,5.3049,5.3022,5.3031,5.301,5.3076,5.3011,5.3023,5.3009,5.3008,5.301,5.3089,5.3091,5.3093,5.3095,0,5.3154,5.3133,5.3143,5.3147,5.3155,5.3156,5.3153,5.3165,5.3114,5.3126,5.3142,5.3148,5.316,5.3173,5.3175,5.3165,5.3122,5.3116,5.3128,5.3141,5.3153,5.3147,5.2944,5.3111,5.311,5.3108,5.3107,5.3107,5.3276,5.3301,5.3285,5.3298,5.3291,5.3289,5.3309,5.3286,5.3299,5.3303,5.3275,5.3298,5.3286,5.3285,5.3279,5.3296,5.3266,5.3285,5.3289,5.3295,5.3303,5.3152,5.3297,5.3296,5.3296,5.3295,5.3295,0,5.3433,5.342,5.3432,5.3429,5.3439,5.3397,5.3391,5.3403,5.3423,5.3415,5.3423,5.3441,5.3454,5.3428,5.3436,5.3455,5.3435,5.3459,5.3456,5.3454,5.333,5.3317,5.3474,5.3474,5.3474,5.3474,5.3474,5.3474,5.3516,5.3556,5.3534,5.3569,5.3555,5.3576,5.3576,5.3575,5.3568,5.3591,5.36,5.3583,5.3568,5.3575,5.3584,5.3576,5.3581,5.3612,5.3597,5.3481,5.3463,5.3447,5.3435,5.3614,5.3614,5.372,5.3721,5.3722]}]]